This demonstration page uses our WeatherBlox Daily Observations layout. Learn more.

Left ArrowRight Arrow

47.50024, -111.30081

Hourly Observations for June 3, 2020

Temp ( °F °C ) Dew Point ( °F °C ) Humidity (%) Winds ( mph kmh ) Pressure ( in mb ) Visibility ( mi km ) Precip ( " mm )
12:53 am 00:53 Clear 65 18.3 32 0 29 29 SW 13 20 29.86 1011 10 16 0.00 0.00
1:53 am 01:53 Clear 61 16.1 35 1.7 38 38 SW 13 20 29.87 1011 10 16 0.00 0.00
2:53 am 02:53 Clear 60 15.6 35 1.7 39 39 SW 13 20 29.86 1011 10 16 0.00 0.00
3:53 am 03:53 Clear 55 12.8 35 1.7 47 47 SW 15 24 29.87 1012 10 16 0.00 0.00
4:53 am 04:53 Clear 55 12.8 32 0 42 42 SW 16 26 29.87 1012 10 16 0.00 0.00
5:53 am 05:53 Sunny 55 12.8 31 -0.6 40 40 W 6 9 29.92 1013 10 16 0.00 0.00
6:53 am 06:53 Sunny 56 13.3 34 1.1 44 44 SW 15 24 29.91 1013 10 16 0.00 0.00
7:53 am 07:53 Sunny 59 15 34 1.1 39 39 SW 20 31 29.91 1013 10 16 0.00 0.00
8:53 am 08:53 Sunny 61 16.1 35 1.7 38 38 SW 18 30 29.94 1014 10 16 0.00 0.00
9:53 am 09:53 Sunny 64 17.8 37 2.8 37 37 SW 18 30 29.93 1014 10 16 0.00 0.00
10:53 am 10:53 Sunny 64 17.8 36 2.2 35 35 SW 15 24 29.93 1013 10 16 0.00 0.00
11:53 am 11:53 Sunny 68 20 36 2.2 31 31 SSW 13 20 29.90 1013 10 16 0.00 0.00
12:53 pm 12:53 Sunny 71 21.7 34 1.1 26 26 WSW 18 30 29.87 1012 10 16 0.00 0.00
1:53 pm 13:53 Sunny 74 23.3 32 0 21 21 W 20 31 29.85 1011 10 16 0.00 0.00
2:53 pm 14:53 Sunny 73 22.8 30 -1.1 20 20 WSW 21 33 29.84 1011 10 16 0.00 0.00
3:53 pm 15:53 Sunny 75 23.9 28 -2.2 18 18 W 21 33 29.84 1011 10 16 0.00 0.00
4:53 pm 16:53 Sunny 74 23.3 28 -2.2 18 18 W 20 31 29.84 1010 10 16 0.00 0.00
5:53 pm 17:53 Sunny 73 22.8 25 -3.9 17 17 WNW 13 20 29.83 1010 10 16 0.00 0.00
6:53 pm 18:53 Sunny 72 22.2 25 -3.9 17 17 WNW 13 20 29.82 1010 10 16 0.00 0.00
7:53 pm 19:53 Sunny 69 20.6 27 -2.8 21 21 NW 9 15 29.83 1010 10 16 0.00 0.00
8:53 pm 20:53 Sunny 62 16.7 31 -0.6 31 31 NNW 3 6 29.85 1011 10 16 0.00 0.00
9:53 pm 21:53 Clear 58 14.4 26 -3.3 29 29 ENE 8 13 29.87 1012 10 16 0.00 0.00
10:53 pm 22:53 Clear 58 14.4 27 -2.8 31 31 ESE 5 7 29.87 1012 10 16 0.00 0.00
11:53 pm 23:53 Clear 56 13.3 28 -2.2 34 34 SE 6 9 29.87 1011 10 16 0.00 0.00

Powered by AerisWeather